Flag for U.S.A. Weather past 2 weeks in Warren, Michigan, U.S.A.

Now
12 °F

Clear.


Feels Like: 12 °F
Forecast: 5 / 23 °F
Wind: No wind

Location: Detroit City Airport

Current Time: Mar 5, 2015 at 9:48:24 PM

Latest Report: Mar 5, 2015 at 8:53 PM


Visibility: 10 mi

Pressure: 30.50 "Hg

Humidity: 53%

Dew point: -2 °F

Location of WarrenLocation

Historic Weather in Warren — Graph

°F

Warren temperature yesterday

Maximum temperature yesterday: 36 °F (at 12:53 AM)
Minimum temperature yesterday: 19 °F (at 11:53 PM)
Average temperature yesterday: 31 °F

Past Weeks' High & Low Weather Summary

 TemperatureHumidityPressure
High38 °F (Mar 3, 7:53 PM)87% (Feb 21, 8:53 PM)30.98 "Hg (Feb 21, 8:53 PM)
Low-9 °F (Feb 20, 6:53 AM)34% (Feb 27, 3:53 PM)28.11 "Hg (Mar 1, 1:53 PM)
Average16 °F59%30.25 "Hg
* Reported Feb 18 8:53 PM — Mar 5 8:53 PM, Warren, Weather by CustomWeather, © 2015

Note: Actual official high and low records may vary slightly from our data, if they occured in-between our weather recording intervals... More about our weather records

Advertising

Warren weather history for previous 24 hours

 ConditionsComfort  
Time TempWeatherWind HumidityBarometerVisibility
8:53 PM
Thu, Mar 5
12 °FClear.No wind53%30.50 "Hg10 mi
7:53 PM15 °FClear.No wind46%30.53 "Hg10 mi
6:53 PM16 °FClear.7 mph45%30.52 "Hg10 mi
5:53 PM18 °FSunny.7 mph41%30.48 "Hg10 mi
4:53 PM19 °FSunny.12 mph38%30.45 "Hg10 mi
3:53 PM20 °FSunny.10 mph38%30.43 "Hg10 mi
2:53 PM20 °FSunny.8 mph40%30.42 "Hg10 mi
1:53 PM19 °FSunny.7 mph39%30.42 "Hg10 mi
12:53 PM18 °FSunny.8 mph41%30.43 "Hg10 mi
11:53 AM17 °FSunny.9 mph39%30.42 "Hg10 mi
10:53 AM15 °FSunny.8 mph42%30.43 "Hg10 mi
9:53 AM14 °FSunny.7 mph47%30.45 "Hg10 mi
8:53 AM12 °FSunny.5 mph56%30.43 "Hg8 mi
7:53 AM10 °FSunny.7 mph58%30.41 "Hg10 mi
6:53 AM9 °FClear.7 mph61%30.38 "Hg10 mi
5:53 AM11 °FClear.7 mph59%30.37 "Hg10 mi
4:53 AM12 °FClear.9 mph58%30.36 "Hg10 mi
3:53 AM13 °FClear.9 mph54%30.32 "Hg10 mi
2:53 AM16 °FPassing clouds.12 mph49%30.32 "Hg10 mi
1:53 AM17 °FClear.10 mph45%30.30 "Hg10 mi
12:53 AM18 °FClear.12 mph41%30.28 "Hg10 mi
11:53 PM
Wed, Mar 4
19 °FClear.14 mph41%30.26 "Hg10 mi
10:53 PM20 °FClear.18 mph38%30.23 "Hg10 mi
9:53 PM21 °FClear.18 mph38%30.19 "Hg10 mi
Weather by CustomWeather, © 2015

See weather overviewHow to use our weather pages